Regional Weather Roundup
Issued by NWS

Home | Current Version | Previous Version | Graphics & Text | Print | Product List | Glossary On
Versions: 1 2 3 4 5 6 7 8 9 10 11 12 13 14 15 16 17 18 19 20 21 22 23 24 25 26 27 28 29 30 31 32 33 34 35 36 37 38 39 40 41 42 43 44 45 46 47 48 49 50
000
ASUS43 KLSX 022307
RWRMO

WEATHER SUMMARY FOR MISSOURI
NATIONAL WEATHER SERVICE SPRINGFIELD MO
600 PM CDT SUN AUG 02 2015

NOTE: "FAIR" INDICATES FEW OR NO CLOUDS BELOW 12,000 FEET WITH NO
       SIGNIFICANT WEATHER AND/OR OBSTRUCTIONS TO VISIBILITY.
       CURRENT SKY AND/OR WEATHER CONDITIONS ARE NOT AVAILABLE FOR
       CHILLICOTHE AND FARMINGTON.

MOZ001>031-035>038-043-044-053-054-030000-
...NORTHERN AND WESTERN MISSOURI...

CITY           SKY/WX    TMP DP  RH WIND       PRES   REMARKS
KANSAS CTY INT MOSUNNY   89  72  56 SW7       29.85S HX  96
KANSAS C DTWN  SUNNY     93  68  43 W8        29.83F HX  97
LEE`S SUMMIT   SUNNY     92  65  40 SW10      29.85F HX  94
ST JOSEPH        N/A     89  74  60 SW8       29.83F HX  98
CHILLICOTHE      N/A     90  71  53 SW8       29.83F HX  96
KIRKSVILLE     SUNNY     88  71  57 SW7       29.83F HX  94

$$
MOZ066>068-077>081-088>096-101>105-030000-
...SOUTHWEST MISSOURI...

CITY           SKY/WX    TMP DP  RH WIND       PRES   REMARKS
SPRINGFIELD    MOSUNNY   90  63  40 SW10      29.92F HX  91
JOPLIN         SUNNY     92  59  33 SW15G21   29.92S HX  91

$$
MOZ032>034-039>042-045>050-055>058-069>072-030000-
...CENTRAL MISSOURI...

CITY           SKY/WX    TMP DP  RH WIND       PRES   REMARKS
COLUMBIA       SUNNY     88  70  55 SW14      29.88F HX  93
JEFFERSON CITY MOSUNNY   91  65  41 SW14      29.85F HX  93
ROLLA          SUNNY     89  66  46 W8        29.90S HX  91
SEDALIA        SUNNY     90  67  46 SW9       29.88F HX  93
WHITEMAN AFB   SUNNY     92  67  43 SW12      29.85F HX  96
WARRENSBURG    SUNNY     91  63  38 SW9       29.85F HX  92
OSAGE BEACH    SUNNY     91  66  43 SW5       29.89F HX  94

$$
MOZ051-052-059>065-030000-
...EAST CENTRAL MISSOURI...

CITY           SKY/WX    TMP DP  RH WIND       PRES   REMARKS
ST LOUIS INTL  PTSUNNY   93  68  43 W12       29.86F HX  97
SPIRIT OF STL  SUNNY     91  70  49 W7        29.85S HX  96
ST CHARLES     SUNNY     93  64  38 W10       29.84F HX  94

$$
MOZ072>076-082>087-097>100-106>115-030000-
...SOUTH CENTRAL AND SOUTHEAST MISSOURI...

CITY           SKY/WX    TMP DP  RH WIND       PRES   REMARKS
CAPE GIRARDEAU SUNNY     88  71  57 SW7       29.88F HX  94
FARMINGTON     SUNNY     90  70  51 SW8       29.94F HX  95
POPLAR BLUFF   SUNNY     89  71  55 S7        29.88F HX  95
WEST PLAINS    MOSUNNY   88  66  48 SW5       29.95F HX  90

$$


USA.gov is the U.S. government's official web portal to all federal, state and local government web resources and services.